This demonstration page uses our WeatherBlox Daily Observations layout. Learn more.

Left ArrowRight Arrow

Hourly Observations for September 15, 2015

Temp ( °F °C ) Dew Point ( °F °C ) Humidity (%) Winds ( mph kmh ) Pressure ( in mb ) Visibility ( mi km ) Precip ( " mm )
12:59 am 00:59 Clear 58 14.4 54 12.2 87 87 VRB 5 7 30.28 1025 10 16 0.00 0.00
1:59 am 01:59 Clear 58 14.4 53 11.7 84 84 WSW 3 6 30.29 1026 10 16 0.00 0.00
2:59 am 02:59 Clear 57 13.9 53 11.7 87 87 VRB 3 6 30.29 1026 10 16 0.00 0.00
3:59 am 03:59 Clear 57 13.9 54 12.2 90 90 S 3 6 30.31 1026 10 16 0.00 0.00
4:59 am 04:59 Clear 57 13.9 53 11.7 87 87 Calm 30.32 1027 10 16 0.00 0.00
5:59 am 05:59 Clear 58 14.4 54 12.2 87 87 SW 5 7 30.34 1027 10 16 0.00 0.00
6:59 am 06:59 Sunny 57 13.9 52 11.1 83 83 Calm 30.35 1028 10 16 0.00 0.00
7:59 am 07:59 Sunny 63 17.2 59 15 87 87 Calm 30.36 1028 9 14 0.00 0.00
8:59 am 08:59 Sunny 70 21.1 55 12.8 59 59 NW 8 13 30.37 1029 10 16 0.00 0.00
9:59 am 09:59 Sunny 74 23.3 56 13.3 54 54 N 7 11 30.38 1029 10 16 0.00 0.00
10:59 am 10:59 Mostly Sunny 76 24.4 56 13.3 50 50 N 6 9 30.39 1029 10 16 0.00 0.00
11:59 am 11:59 Mostly Sunny 79 26.1 52 11.1 39 39 N 7 11 30.38 1029 10 16 0.00 0.00
12:59 pm 12:59 Mostly Sunny 79 26.1 49 9.4 35 35 N 3 6 30.38 1029 10 16 0.00 0.00
1:59 pm 13:59 Mostly Sunny 80 26.7 47 8.3 31 31 NNE 3 6 30.37 1028 10 16 0.00 0.00
2:59 pm 14:59 Mostly Sunny 81 27.2 47 8.3 30 30 NNE 5 7 30.35 1028 10 16 0.00 0.00
3:59 pm 15:59 Partly Cloudy 82 27.8 48 8.9 31 31 NNE 5 7 30.34 1027 10 16 0.00 0.00
4:59 pm 16:59 Partly Cloudy 80 26.7 47 8.3 31 31 NE 7 11 30.33 1027 10 16 0.00 0.00
5:59 pm 17:59 Partly Cloudy 78 25.6 49 9.4 36 36 E 7 11 30.33 1027 10 16 0.00 0.00
6:59 pm 18:59 Partly Cloudy 73 22.8 52 11.1 48 48 ESE 5 7 30.32 1027 10 16 0.00 0.00
7:59 pm 19:59 Partly Cloudy 67 19.4 54 12.2 63 63 SE 3 6 30.33 1027 10 16 0.00 0.00
8:59 pm 20:59 Partly Cloudy 65 18.3 54 12.2 68 68 SSE 5 7 30.35 1028 10 16 0.00 0.00
9:59 pm 21:59 Partly Cloudy 65 18.3 55 12.8 70 70 S 5 7 30.35 1028 10 16 0.00 0.00
10:59 pm 22:59 Partly Cloudy 63 17.2 56 13.3 78 78 SSE 5 7 30.36 1028 10 16 0.00 0.00
11:59 pm 23:59 Mostly Clear 62 16.7 56 13.3 80 80 S 3 6 30.36 1028 10 16 0.00 0.00

Powered by AerisWeather